DateTimeUTC,F1_A11,F1_S11,BsB_S11,BsG_S11,BsR_S11,BbsB_S11,BbsG_S11,BbsR_S11,BaB_A11,BaG_A11,BaR_A11,Tu_S11,T_S11,Uu_S11,U_S11,P_S11,T1_A11
2021-06-13T22:00:00Z,00000200,20000000,,,,,,,0000.59,0000.60,0000.58,17.5,24.4,03.7,02.4,0669.3,30.9
2021-06-13T22:01:00Z,00000200,20000000,,,,,,,0000.35,0000.03,0000.13,17.5,24.4,03.7,02.4,0669.3,31.0
2021-06-13T22:02:00Z,00000200,20000000,,,,,,,0000.02,0000.40,-000.14,17.5,24.4,03.7,02.4,0669.3,30.9
2021-06-13T22:03:00Z,00000200,60000000,,,,,,,-000.35,-000.09,-000.10,17.5,24.4,03.7,02.4,0669.3,30.9
2021-06-13T22:04:00Z,00000200,40000000,0000.46,0000.47,0000.32,0000.44,-000.01,0000.35,-000.12,-000.43,0000.13,17.6,24.2,03.6,02.4,0670.2,30.9
2021-06-13T22:05:00Z,00000200,00000000,0000.74,0000.33,0000.13,0000.79,0000.06,-000.07,0000.18,0000.42,0000.14,17.6,24.1,03.5,02.3,0670.3,30.9
2021-06-13T22:06:00Z,00000200,00000000,0000.77,0000.51,0000.28,-000.07,0000.08,-000.10,0000.68,0000.55,0000.19,17.6,24.1,03.6,02.4,0670.3,30.9
2021-06-13T22:07:00Z,00000200,00000000,0000.25,0000.29,0000.09,0000.22,0000.06,0000.07,0000.58,0000.22,0000.18,17.6,24.1,03.6,02.4,0670.3,30.9
2021-06-13T22:08:00Z,00000200,00000000,0000.80,0000.57,0000.09,-000.11,-000.00,0000.04,0000.12,0000.09,0000.64,17.6,24.1,03.8,02.5,0670.3,31.0
2021-06-13T22:09:00Z,00000200,00000000,0000.60,0000.40,0000.14,-000.27,0000.08,0000.12,0000.76,0001.13,0000.61,17.6,24.0,03.8,02.5,0670.3,31.0
2021-06-13T22:10:00Z,00000200,00000000,0000.61,0000.36,0000.20,-000.17,0000.26,0000.31,0000.59,0000.34,0000.38,17.6,24.1,04.1,02.7,0670.3,30.9
2021-06-13T22:11:00Z,00000200,00000000,0001.47,0000.55,0000.08,0000.12,0000.11,0000.09,0000.09,-000.09,-000.20,17.6,24.1,04.0,02.7,0670.3,30.9
2021-06-13T22:12:00Z,00000200,00000000,0001.38,0000.08,0000.18,0000.38,0000.18,-000.08,0000.08,0000.46,0000.18,17.6,24.0,04.0,02.7,0670.3,30.9
2021-06-13T22:13:00Z,00000200,00000000,0000.05,0000.50,0000.01,0000.04,-000.06,0000.01,0000.21,-000.24,0000.15,17.6,24.0,03.8,02.6,0670.3,30.9
2021-06-13T22:14:00Z,00000200,00000000,0000.43,0000.27,0000.38,0000.45,0000.06,0000.22,0000.08,0000.07,0000.25,17.6,24.0,03.9,02.6,0670.3,30.9
2021-06-13T22:15:00Z,00000200,00000000,0000.95,0000.32,0000.07,0000.36,0000.04,0000.02,0000.17,0000.32,-000.11,17.6,24.0,03.7,02.5,0670.4,31.0
2021-06-13T22:16:00Z,00000200,00000000,0000.31,0000.36,0000.32,-000.09,-000.22,-000.06,0000.10,0000.05,-000.14,17.5,24.0,03.7,02.5,0670.3,30.9
2021-06-13T22:17:00Z,00000200,00000000,0000.95,0000.57,0000.08,0000.14,0000.17,0000.05,0000.27,0000.70,0000.58,17.5,24.0,03.6,02.4,0670.4,30.9
2021-06-13T22:18:00Z,00000200,00000000,0000.60,0000.50,0000.01,0000.26,0000.15,-000.14,0000.03,-000.10,-000.01,17.5,24.0,03.6,02.5,0670.4,30.9
2021-06-13T22:19:00Z,00000200,00000000,-000.20,0000.39,0000.04,-000.29,0000.05,-000.09,0000.65,0000.59,0000.58,17.5,24.0,03.5,02.4,0670.3,30.9
2021-06-13T22:20:00Z,00000200,00000000,0000.97,0000.54,0000.12,0000.58,0000.10,-000.17,0000.27,0000.45,0000.26,17.5,24.0,03.8,02.5,0670.3,30.9
2021-06-13T22:21:00Z,00000200,00000000,0001.13,0000.31,0000.33,0000.56,0000.24,0000.14,0000.70,0000.58,0000.40,17.5,24.0,03.9,02.6,0670.4,30.9
2021-06-13T22:22:00Z,00000200,00000000,0000.58,0000.31,0000.10,0000.41,0000.09,0000.10,0000.38,-000.58,0000.27,17.5,24.0,03.9,02.7,0670.4,31.0
2021-06-13T22:23:00Z,00000200,00000000,0000.92,0000.29,-000.01,0000.52,-000.11,0000.20,-000.08,0000.28,-000.25,17.5,24.0,03.9,02.6,0670.3,30.9
2021-06-13T22:24:00Z,00000200,00000000,0000.94,0000.48,0000.23,0000.38,0000.07,-000.07,0000.45,0000.61,0000.21,17.5,23.9,04.0,02.7,0670.4,30.9
2021-06-13T22:25:00Z,00000200,00000000,0001.12,0000.33,0000.07,0000.03,0000.12,0000.05,0000.43,0000.34,0000.62,17.5,23.9,04.0,02.7,0670.4,30.9
2021-06-13T22:26:00Z,00000200,00000000,0001.43,0000.23,0000.12,-000.37,0000.12,0000.09,-000.11,0000.46,-000.02,17.5,23.9,04.0,02.7,0670.3,30.9
2021-06-13T22:27:00Z,00000200,00000000,0000.75,0000.30,0000.47,0000.26,-000.16,0000.25,-000.04,-000.40,-000.01,17.5,23.9,03.8,02.5,0670.3,30.9
2021-06-13T22:28:00Z,00000200,00000000,0001.04,0000.17,-000.03,0000.62,0000.24,0000.51,0000.41,0000.46,0000.20,17.5,23.9,03.8,02.5,0670.4,30.9
2021-06-13T22:29:00Z,00000200,00000000,0001.41,0000.53,0000.06,0000.29,0000.26,0000.14,0000.50,-000.36,-000.01,17.5,23.9,03.9,02.6,0670.3,30.9
2021-06-13T22:30:00Z,00000200,00000000,0000.45,0000.25,-000.27,-000.18,0000.20,0000.06,-000.02,0000.22,0000.33,17.5,23.9,03.8,02.5,0670.4,30.9
2021-06-13T22:31:00Z,00000200,00000000,0000.84,0000.46,0000.27,-000.01,0000.19,-000.08,0000.66,0000.55,0000.33,17.4,23.9,03.8,02.6,0670.4,30.9
2021-06-13T22:32:00Z,00000200,00000000,0000.92,0000.41,0000.11,0000.26,0000.05,0000.21,-000.11,0000.35,0000.08,17.4,23.9,03.9,02.6,0670.4,30.9
2021-06-13T22:33:00Z,00000200,00000000,0000.49,0000.37,0000.12,0000.50,-000.12,0000.06,0000.48,0000.14,0000.31,17.4,23.9,03.8,02.6,0670.3,30.9
2021-06-13T22:34:00Z,00000200,00000000,0000.60,0000.18,-000.04,0000.65,0000.24,0000.02,-000.20,0000.01,-000.05,17.4,23.9,03.8,02.5,0670.3,30.9
2021-06-13T22:35:00Z,00000200,00000000,0001.02,0000.10,0000.23,0000.20,0000.11,0000.15,0000.69,0000.47,0000.19,17.4,23.9,03.9,02.6,0670.4,30.9
2021-06-13T22:36:00Z,00000200,00000000,0001.02,0000.31,-000.22,-000.17,0000.31,0000.20,0000.35,0000.63,0000.27,17.4,23.9,03.9,02.6,0670.4,30.9
2021-06-13T22:37:00Z,00000200,00000000,0000.95,0000.29,-000.12,0000.05,0000.04,0000.02,0000.42,0000.17,0000.33,17.4,23.9,04.0,02.7,0670.4,30.9
2021-06-13T22:38:00Z,00000200,00000000,0000.74,0000.30,-000.03,0000.56,0000.33,0000.19,0000.25,0000.17,0000.26,17.4,23.8,03.9,02.6,0670.4,30.9
2021-06-13T22:39:00Z,00000200,00000000,0001.16,0000.33,0000.03,0000.18,0000.24,0000.36,0000.35,0000.22,0000.37,17.4,23.8,04.1,02.7,0670.4,30.9
2021-06-13T22:40:00Z,00000200,00000000,0000.64,0000.42,-000.45,0000.04,0000.19,-000.19,-000.16,0000.15,-000.33,17.4,23.8,04.1,02.7,0670.4,30.9
2021-06-13T22:41:00Z,00000200,00000000,0000.61,0000.13,0000.07,-000.11,0000.24,-000.17,0000.15,0000.10,0000.35,17.4,23.8,03.9,02.6,0670.4,30.9
2021-06-13T22:42:00Z,00000200,00000000,-000.16,0000.34,0000.19,-000.20,0000.18,0000.07,0000.16,0000.13,0000.40,17.4,23.8,03.8,02.6,0670.4,30.9
2021-06-13T22:43:00Z,00000200,00000000,0001.02,0000.64,0000.21,0000.16,0000.35,0000.12,0001.07,0000.70,0000.32,17.3,23.8,03.9,02.6,0670.4,30.9
2021-06-13T22:44:00Z,00000200,00000000,0000.67,0000.54,0000.25,0000.07,0000.18,0000.15,0000.41,0000.34,0000.32,17.3,23.8,04.0,02.7,0670.4,30.9
2021-06-13T22:45:00Z,00000200,00000000,0001.22,0000.29,0000.18,0000.05,0000.10,-000.03,-000.04,0000.03,-000.05,17.3,23.8,04.1,02.8,0670.3,30.9
2021-06-13T22:46:00Z,00000200,00000000,0000.54,0000.16,0000.17,0000.05,0000.23,0000.19,-000.20,0000.12,-000.04,17.4,23.8,03.9,02.6,0670.3,30.9
2021-06-13T22:47:00Z,00000200,00000000,0000.98,0000.67,0000.26,0000.14,-000.02,0000.14,0000.65,0000.27,0000.30,17.3,23.8,04.1,02.7,0670.4,30.9
2021-06-13T22:48:00Z,00000200,00000000,0000.50,0000.81,0000.16,-000.03,-000.00,-000.06,0000.34,0000.36,0000.11,17.3,23.8,04.0,02.7,0670.3,30.9
2021-06-13T22:49:00Z,00000200,00000000,0001.00,0000.04,0000.24,-000.15,-000.20,0000.11,0000.40,0000.65,0000.64,17.3,23.8,04.2,02.8,0670.3,30.9
2021-06-13T22:50:00Z,00000200,00000000,0000.83,0000.29,0000.18,0000.35,0000.17,0000.23,0000.21,0000.23,0000.40,17.3,23.8,04.1,02.7,0670.3,30.9
2021-06-13T22:51:00Z,00000200,00000000,0001.77,0000.29,0000.02,-000.06,0000.10,-000.16,0000.48,0000.16,0000.08,17.3,23.8,04.2,02.8,0670.3,30.9
2021-06-13T22:52:00Z,00000200,00000000,0001.12,0000.23,-000.02,0000.07,0000.15,0000.29,0000.65,0000.46,0000.17,17.3,23.8,04.3,02.9,0670.3,30.9
2021-06-13T22:53:00Z,00000200,00000000,0000.77,0000.28,0000.34,-000.15,0000.14,0000.17,-000.47,-000.31,-000.20,17.3,23.8,04.2,02.8,0670.3,30.9
2021-06-13T22:54:00Z,00000200,00000000,0000.32,0000.40,0000.13,0000.87,0000.45,-000.11,-000.10,-000.22,-000.40,17.3,23.8,04.0,02.7,0670.3,30.9
2021-06-13T22:55:00Z,00000200,00000000,0000.50,0000.25,0000.26,0000.04,0000.12,-000.19,0000.17,0000.66,0000.58,17.3,23.7,03.9,02.6,0670.4,30.9
2021-06-13T22:56:00Z,00000200,00000000,0000.99,0000.69,0000.12,0000.14,-000.08,0000.24,0000.70,0000.18,0000.37,17.3,23.7,03.9,02.6,0670.3,30.9
2021-06-13T22:57:00Z,00000200,40000000,,,,,,,0000.35,0000.43,0000.19,17.3,23.8,04.5,03.0,0670.5,30.9
2021-06-13T22:58:00Z,00000200,60000000,,,,,,,-000.15,-000.19,-000.01,17.1,23.9,04.0,02.6,0669.4,30.9
2021-06-13T22:59:00Z,00000200,20000000,,,,,,,-000.13,-000.18,-000.25,17.1,24.0,04.0,02.6,0669.3,30.9
